TimeEST,TemperatureF,Dew PointF,Humidity,Sea Level PressureIn,VisibilityMPH,Wind Direction,Wind SpeedMPH,Gust SpeedMPH,PrecipitationIn,Events,Conditions,WindDirDegrees,DateUTC
12:53 AM,26.1,16.0,66,30.27,10.0,ESE,6.9,-,N/A,,Overcast,120,2013-02-07 05:53:00
1:53 AM,26.1,16.0,66,30.29,10.0,SSE,5.8,-,N/A,,Overcast,150,2013-02-07 06:53:00
2:53 AM,26.1,16.0,66,30.28,10.0,SSE,6.9,-,N/A,,Overcast,150,2013-02-07 07:53:00
3:53 AM,26.1,17.1,69,30.27,10.0,South,8.1,-,N/A,,Overcast,170,2013-02-07 08:53:00
4:53 AM,26.1,17.1,69,30.24,10.0,SSE,10.4,-,N/A,,Overcast,150,2013-02-07 09:53:00
5:53 AM,26.1,16.0,66,30.22,10.0,SSE,8.1,-,N/A,,Overcast,160,2013-02-07 10:53:00
6:53 AM,27.0,17.1,66,30.22,10.0,South,6.9,-,N/A,,Overcast,190,2013-02-07 11:53:00
7:53 AM,27.0,18.0,69,30.23,10.0,SSE,6.9,-,N/A,,Overcast,160,2013-02-07 12:53:00
8:53 AM,28.0,19.0,69,30.23,10.0,SE,4.6,-,N/A,,Overcast,130,2013-02-07 13:53:00
9:53 AM,30.0,19.0,64,30.22,10.0,SSE,4.6,-,N/A,,Mostly Cloudy,150,2013-02-07 14:53:00
10:53 AM,32.0,21.0,64,30.20,10.0,SE,6.9,-,N/A,,Mostly Cloudy,140,2013-02-07 15:53:00
11:53 AM,33.1,23.0,66,30.19,9.0,SSE,8.1,-,N/A,,Mostly Cloudy,150,2013-02-07 16:53:00
12:53 PM,35.1,24.1,64,30.15,9.0,ESE,8.1,-,N/A,,Mostly Cloudy,120,2013-02-07 17:53:00
1:53 PM,36.0,25.0,64,30.11,9.0,SE,6.9,-,N/A,,Overcast,130,2013-02-07 18:53:00
2:53 PM,37.0,25.0,62,30.08,9.0,East,8.1,-,N/A,,Mostly Cloudy,100,2013-02-07 19:53:00
3:53 PM,36.0,25.0,64,30.06,9.0,ESE,12.7,-,N/A,,Overcast,110,2013-02-07 20:53:00
4:53 PM,35.1,25.0,67,30.03,9.0,East,12.7,-,N/A,,Overcast,100,2013-02-07 21:53:00
5:53 PM,34.0,26.1,73,30.02,10.0,East,13.8,-,N/A,,Overcast,90,2013-02-07 22:53:00
6:53 PM,33.1,24.1,70,30.01,10.0,East,13.8,-,N/A,,Overcast,100,2013-02-07 23:53:00
7:53 PM,32.0,21.9,66,29.99,10.0,East,10.4,-,N/A,,Overcast,100,2013-02-08 00:53:00
8:53 PM,32.0,21.9,66,29.98,10.0,East,13.8,-,N/A,,Overcast,90,2013-02-08 01:53:00
9:53 PM,32.0,21.0,64,29.96,10.0,East,6.9,-,N/A,,Overcast,100,2013-02-08 02:53:00
10:41 PM,30.2,21.2,69,29.94,4.0,ESE,8.1,-,0.00,Snow,Light Snow,110,2013-02-08 03:41:00
10:47 PM,30.2,21.2,69,29.94,1.5,East,8.1,-,0.00,Snow,Light Snow,100,2013-02-08 03:47:00
10:53 PM,28.9,24.1,82,29.97,0.8,East,5.8,-,0.01,Snow,Light Snow,90,2013-02-08 03:53:00
11:03 PM,28.4,24.8,86,29.94,1.2,East,5.8,-,N/A,Snow,Light Snow,80,2013-02-08 04:03:00
11:11 PM,28.4,24.8,86,29.93,1.0,ENE,6.9,-,0.01,Snow,Light Snow,70,2013-02-08 04:11:00
11:25 PM,28.4,24.8,86,29.92,0.8,ENE,9.2,-,0.02,Snow,Light Snow,70,2013-02-08 04:25:00
11:53 PM,28.0,25.0,88,29.92,1.0,ENE,11.5,-,0.04,Snow,Light Snow,70,2013-02-08 04:53:00